Location: Unspecified
(32.6180°N, 83.6190°W)
Time: 01:48:57
(UTC+00:00)

Daily predictions for brighter satellites

Satellite Brightness Start Highest point End
(mag) Time Altitude Azimuth Time Altitude Azimuth Time Altitude Azimuth
NOAA 6 4.2 00:00:12 10° SE 00:04:59 43° ENE 00:09:47 10° N
Cosmos 1680 Rocket 3.8 00:02:32 10° N 00:07:27 40° ENE 00:07:40 40° ENE
USA 308 4.1 00:05:08 10° W 00:07:43 25° NW 00:08:39 22° N
Meteor 2-11 Rocket 4.4 00:02:10 10° N 00:08:16 63° E 00:14:18 10° SSE
NOAA 15 4.5 00:07:59 10° SSE 00:13:16 87° ENE 00:18:35 10° NNW
Cosmos 2285 Rocket 4.1 00:07:29 10° S 00:13:32 53° ESE 00:15:41 37° NE
PSLV R/B 3.2 00:10:10 10° SSE 00:14:08 69° ENE 00:15:07 48° NNE
Cosmos 1844 Rocket 4.4 00:14:54 10° N 00:16:24 17° NNE 00:16:24 17° NNE
SPOT 1/Viking Rocket 4.2 00:16:20 10° S 00:21:25 56° W 00:26:31 10° NNW
Cosmos 2219 3.6 00:18:52 10° NNW 00:24:33 65° WSW 00:30:12 10° S
Cosmos 2278 3.8 00:20:30 10° SSW 00:26:11 77° WNW 00:28:56 32° NNE
Cosmos 2263 Rocket 3.7 00:23:14 10° NW 00:28:24 37° WSW 00:33:33 10° S
Cosmos 2315 Rocket 4.0 00:23:00 10° S 00:29:12 61° E 00:30:53 46° NE
COSMOS 2455 4.1 00:25:40 10° SW 00:31:12 38° WNW 00:35:37 15° N
COSMO-SKYMED 1 4.2 00:29:22 12° NNW 00:32:41 30° WNW 00:36:17 10° SW
S3M 4.0 00:29:21 10° S 00:35:44 87° W 00:40:23 20° N
USA 59 Rocket 0.9 00:38:22 10° SW 00:41:55 39° W 00:41:55 39° W
SL-19 R/B 4.5 00:38:06 10° S 00:43:23 65° WSW 00:48:57 10° NNW
BREEZE M DEB (TANK) 3.9 00:41:47 10° WNW 00:44:49 28° W 00:44:49 28° W
Cosmos 2221 3.7 00:41:42 10° SSW 00:45:37 39° W 00:46:22 35° NW
Cosmos 2360 Rocket 2.0 00:40:04 10° SSW 00:45:39 86° SE 00:45:39 86° SE
Hubble Space Telescope 2.6 00:43:50 10° WSW 00:46:06 26° SW 00:46:06 26° SW
Cosmos 883 Rocket 4.5 00:45:05 10° S 00:51:24 82° W 00:53:27 46° N
Cosmos 2219 Rocket 3.5 00:54:19 10° S 00:57:05 30° S 00:57:05 30° S
Cosmos 1745 Rocket 4.2 00:53:53 10° NNW 00:59:58 67° W 01:06:00 10° S
Cosmos 2333 Rocket 3.3 01:00:21 10° SW 01:05:44 41° WNW 01:06:57 37° NW
Cosmos 2322 Rocket 3.0 01:07:06 10° SW 01:12:29 47° WNW 01:12:29 47° WNW
Centaur D-1A AC-31 4.3 01:39:33 10° WNW 02:22:10 37° SW 02:23:54 35° SSW
CZ-3 R/B 4.3 06:28:54 10° W 07:41:38 60° SE 07:51:16 10° ESE
COSMOS 2455 4.3 09:39:46 29° SSE 09:39:46 29° SSE 09:42:30 10° SSE
Cosmos 2360 Rocket 4.5 09:40:54 14° NNE 09:43:33 19° ENE 09:47:23 10° ESE
OAO 2 Rocket 4.5 09:55:06 41° ENE 09:55:06 41° ENE 09:58:30 10° ENE
BREEZE-M DEB (TANK) 4.3 09:56:45 51° NE 09:56:45 51° NE 10:00:10 10° E
USA 59 Rocket 1.8 09:59:25 31° S 09:59:25 31° S 10:02:47 10° SSE
ATLAS 2AS CENTAUR R/B 3.2 09:51:36 10° SSW 09:58:35 58° ESE 10:05:23 10° NE
CZ-3 Stage 3 3.9 10:01:28 49° WSW 10:04:51 68° SSW 10:39:42 10° ESE
Cosmos 2333 Rocket 3.2 10:03:17 32° NNE 10:05:23 44° ENE 10:10:48 10° SE
Cosmos 2322 Rocket 3.5 10:07:48 21° N 10:10:59 36° ENE 10:16:08 10° SE
Centaur AC-119 4.1 10:16:03 24° SSE 10:16:03 24° SSE 10:18:08 10° ESE
Cosmos 158 Rocket 3.9 10:12:41 10° SSW 10:18:00 85° ESE 10:23:15 10° NNE
Centaur D-1AR AC-48 4.3 10:11:39 25° WSW 10:21:47 45° SSW 10:27:16 10° ESE
SL-4 R/B 4.2 10:26:07 13° NE 10:26:07 13° NE 10:27:19 10° ENE
CZ-4 R/B 3.8 10:33:45 10° NNE 10:38:22 78° ESE 10:42:59 10° S
Cosmos 1627 Rocket 4.4 10:34:44 10° SSW 10:40:41 55° W 10:46:43 10° N
OAO 3 Rocket 3.0 10:41:45 61° NW 10:42:14 66° N 10:46:53 10° ENE
SL-16 R/B 2.1 10:40:58 45° NW 10:42:32 61° WSW 10:48:05 10° S
Cosmos 44 3.6 10:39:57 10° SSW 10:44:18 60° ESE 10:48:56 10° NE
ISS -3.0 10:50:49 41° NNE 10:50:49 41° NNE 10:53:16 10° NE
Okean 1 2.8 10:52:43 49° NNW 10:53:34 83° W 10:57:07 10° S
Cosmos 2026 Rocket 4.3 10:48:41 10° SSW 10:54:18 39° W 10:59:58 10° N
SL-24 R/B 4.0 10:52:01 10° N 10:56:37 61° WNW 11:00:38 10° SSW
IRIS 4.0 10:56:49 66° SSE 10:56:55 67° SSE 10:59:47 10° ENE
SL-08 ROCKET BODY 4.3 10:51:11 10° S 10:57:01 84° E 11:02:52 10° N
Cosmos 1602 Rocket 4.3 10:53:19 10° S 10:57:38 55° E 11:01:58 10° NNE
IRIDIUM 103 4.5 10:54:50 10° S 11:00:01 77° E 11:05:15 10° N
Cosmos 2278 4.1 11:06:27 26° NW 11:09:02 40° WSW 11:14:14 10° S
Meteor 1-26 Rocket 4.4 11:07:06 10° NNW 11:12:34 50° W 11:18:12 10° SSW
Okean 1-7 Rocket 4.3 11:09:29 10° S 11:13:52 55° E 11:18:14 10° NNE
Meteor 2-2 Rocket 4.4 11:08:21 10° NNW 11:13:56 51° W 11:19:37 10° SSW
USA 290 4.4 11:12:20 10° SSE 11:15:08 29° ESE 11:17:59 10° NE
Cosmos 2285 Rocket 4.0 11:09:02 10° NNW 11:15:28 86° WSW 11:21:53 10° SSE
COSMO-SKYMED 1 2.4 11:12:51 10° SSE 11:16:58 88° W 11:21:05 10° NNW
Cosmos 2297 Rocket 4.2 11:12:39 10° SSE 11:17:32 31° ESE 11:22:28 10° NE
Cosmos 2344 3.8 11:09:03 10° SSW 11:17:53 79° ESE 11:25:08 10° NNE
SKYMED 2 3.7 11:13:57 10° S 11:18:10 52° W 11:22:25 10° NNW
IRIDIUM 106 4.2 11:13:08 10° S 11:18:19 70° W 11:23:32 10° N
Cosmos 2058 Rocket 3.7 11:16:30 22° NW 11:18:29 32° W 11:22:21 10° SSW
Centaur D AC-28 4.3 11:16:11 12° WSW 11:19:26 15° SW 11:22:20 10° S
Cosmos-2242 3.6 11:18:07 22° NW 11:20:00 32° W 11:23:42 10° SSW
CZ-3 R/B 4.1 11:10:24 15° W 11:20:34 25° SW 11:27:09 10° S
ARIANE 6 FM1 Upper Stage 2.5 11:16:51 10° SW 11:20:56 78° WNW 11:24:57 10° NNE
Meteor 1-20 Rocket 4.4 11:17:57 10° S 11:23:36 78° E 11:29:09 10° N
Cosmos 1125 Rocket 4.2 11:19:46 10° N 11:24:55 55° ENE 11:29:59 10° SSE
Cosmos 2360 Rocket 2.4 11:22:42 12° NNW 11:27:46 51° WSW 11:33:09 10° S
Helios 1A Rocket 2.2 11:24:47 10° S 11:28:06 77° WSW 11:31:27 10° NNW
Cosmos 1825 Rocket 4.2 11:25:25 10° S 11:29:45 60° E 11:34:06 10° NNE
Cosmos 2208 Rocket 4.1 11:24:52 10° SSW 11:30:06 81° ESE 11:35:18 10° NNE
Cosmos 1758 Rocket 4.4 11:31:13 10° SW 11:35:02 29° W 11:38:52 10° NNW
Cosmos 1553 Rocket 4.1 11:29:11 10° NNW 11:35:27 58° W 11:41:41 10° S
USA 276 2.4 11:32:41 10° SW 11:35:29 55° SE 11:38:03 10° ENE
S3M 4.5 11:30:41 10° N 11:36:46 63° E 11:42:47 10° SSE
Cosmos 1484 Rocket 2.6 11:34:21 10° N 11:37:36 46° WNW 11:40:48 10° SSW
OAO 2 Rocket 3.4 11:33:51 15° WNW 11:38:08 73° N 11:43:17 10° E
Cosmos 1238 Rocket 4.5 11:37:20 10° NNE 11:39:52 26° E 11:42:35 10° SE
Cosmos 2219 Rocket 2.2 11:36:07 10° NNW 11:41:44 70° WSW 11:47:16 10° S
OAO 3 Copernicus 4.4 11:43:01 12° WNW 11:47:39 76° SSW 11:52:39 10° ESE
Cosmos 2333 Rocket 3.5 11:45:21 11° NW 11:49:14 20° W 11:53:17 10° SW
ATLAS 2AS CENTAUR R/B 3.6 11:44:03 10° WSW 11:49:47 26° NW 11:55:26 10° N
Centaur AC-119 4.2 11:47:56 10° WSW 11:50:38 18° SSW 11:53:18 10° SSE
Cosmos 192 4.4 11:45:52 10° NNW 11:50:43 62° WSW 11:55:30 10° S
Cosmos 1842 3.5 11:48:46 10° N 11:52:01 55° E 11:55:15 10° SSE
Cosmos 2322 Rocket 3.3 11:50:14 10° NW 11:54:43 24° WSW 11:59:10 10° SSW
Cosmos 1743 4.1 11:54:15 10° WSW 11:55:50 13° WNW 11:57:25 10° NW
